Home   Weather   Veszprém   Past weeks
Flag for Hungary

Past Weather in Veszprém, Hungary — Yesterday and Last 2 Weeks

Now
34 °F

Clear.


Feels Like: 30 °F
Forecast: 56 / 31 °F
Wind: 5 mph from Northwest

Location: Ferenc Liszt International Airport

Current Time: Mar 20, 2019 at 5:13:12 am

Latest Report: Mar 20, 2019 at 4:30 am


Visibility: 10 mi

Pressure: 30.39 "Hg

Humidity: 75%

Dew Point: 27 °F

Location of VeszprémLocation

Past Weather in Veszprém — Graph

°F

Veszprém Temperature Yesterday

Maximum temperature yesterday: 50 °F (at 1:00 pm)
Minimum temperature yesterday: 36 °F (at 3:00 am)
Average temperature yesterday: 44 °F

High & Low Weather Summary for the Past Weeks

 TemperatureHumidityPressure
High70 °F (Mar 17, 2:00 pm)100% (Mar 6, 12:30 am)30.39 "Hg (Mar 6, 12:30 am)
Low21 °F (Mar 13, 12:30 am)31% (Mar 5, 3:30 pm)29.62 "Hg (Mar 15, 2:00 am)
Average47 °F67%29.94 "Hg
* Reported Mar 5 4:00 am — Mar 20 4:00 am, Veszprém. Weather by CustomWeather, © 2019

Note: Actual official high and low records may vary slightly from our data, if they occured in-between our weather recording intervals... More about our weather records

Advertising

Veszprém Weather History for the Previous 24 Hours

Scroll right to see more
 ConditionsComfort  
Time TempWeatherWind HumidityBarometerVisibility
4:00 am
Wed, Mar 20
36 °FClear.6 mph70%30.39 "Hg10 mi
3:30 am36 °FClear.7 mph70%30.39 "Hg10 mi
3:00 am34 °FClear.3 mph75%30.39 "Hg10 mi
2:30 am36 °FClear.8 mph70%30.36 "Hg10 mi
2:00 am32 °FClear.6 mph75%30.36 "Hg10 mi
1:30 am30 °FPassing clouds.5 mph80%30.36 "HgN/A
1:00 am34 °FClear.1 mph70%30.36 "Hg10 mi
12:30 am36 °FClear.2 mph65%30.36 "Hg10 mi
12:00 am39 °FPassing clouds.6 mph56%30.36 "HgN/A
11:00 pm
Tue, Mar 19
37 °FClear.8 mph60%30.33 "Hg10 mi
10:30 pm37 °FClear.8 mph60%30.33 "Hg10 mi
10:00 pm41 °FClear.8 mph57%30.30 "Hg10 mi
9:30 pm41 °FClear.9 mph53%30.30 "Hg10 mi
9:00 pm43 °FClear.9 mph49%30.30 "Hg10 mi
8:30 pm41 °FClear.8 mph57%30.30 "Hg10 mi
8:00 pm43 °FClear.10 mph53%30.30 "Hg10 mi
7:30 pm43 °FClear.9 mph53%30.27 "Hg10 mi
7:00 pm46 °FClear.9 mph46%30.27 "Hg10 mi
6:30 pm48 °FClear.13 mph43%30.27 "Hg10 mi
6:00 pm48 °FClear.7 mph46%30.24 "Hg10 mi
5:30 pm50 °FSunny.7 mph40%30.24 "Hg10 mi
5:00 pm50 °FSunny.9 mph43%30.24 "Hg10 mi
4:30 pm50 °FSunny.10 mph43%30.21 "Hg10 mi
4:00 pm50 °FPassing clouds.9 mph43%30.21 "HgN/A
3:30 pm50 °FPassing clouds.9 mph43%30.21 "HgN/A
3:00 pm50 °FSunny.12 mph43%30.21 "Hg10 mi
2:30 pm50 °FSunny.10 mph47%30.21 "Hg10 mi
2:00 pm50 °FPartly sunny.12 mph50%30.21 "HgN/A
1:30 pm50 °FPartly sunny.10 mph47%30.21 "HgN/A
1:00 pm50 °FPassing clouds.8 mph47%30.21 "HgN/A
12:30 pm48 °FPassing clouds.8 mph50%30.21 "HgN/A
12:00 pm48 °FPassing clouds.7 mph50%30.24 "HgN/A
11:30 am48 °FPassing clouds.7 mph50%30.21 "HgN/A
11:00 am46 °FPartly sunny.8 mph53%30.21 "HgN/A
10:30 am46 °FPartly sunny.9 mph53%30.21 "HgN/A
10:00 am46 °FPartly sunny.9 mph53%30.21 "HgN/A
9:30 am45 °FSunny.9 mph57%30.21 "Hg10 mi
9:00 am45 °FSunny.10 mph57%30.21 "Hg10 mi
8:30 am45 °FSunny.8 mph57%30.18 "Hg10 mi
8:00 am43 °FSunny.6 mph66%30.18 "Hg10 mi
7:30 am41 °FSunny.5 mph70%30.18 "Hg10 mi
7:00 am41 °FSunny.7 mph70%30.15 "Hg10 mi
6:30 am41 °FSunny.6 mph70%30.18 "Hg10 mi
6:00 am39 °FSunny.3 mph75%30.15 "Hg10 mi
5:30 am39 °FClear.1 mph75%30.15 "Hg10 mi
5:00 am39 °FClear.7 mph75%30.15 "Hg10 mi
Weather by CustomWeather, © 2019

See weather overview